TimeCDT,TemperatureF,Dew PointF,Humidity,Sea Level PressureIn,VisibilityMPH,Wind Direction,Wind SpeedMPH,Gust SpeedMPH,PrecipitationIn,Events,Conditions,WindDirDegrees,DateUTC
12:54 AM,66.0,62.1,87,29.97,10.0,Calm,Calm,-,N/A,,Clear,0,2013-08-02 05:54:00
1:54 AM,64.0,62.1,93,29.96,10.0,ENE,4.6,-,N/A,,Clear,70,2013-08-02 06:54:00
2:54 AM,69.1,64.0,84,29.94,10.0,Calm,Calm,-,N/A,,Clear,0,2013-08-02 07:54:00
3:54 AM,69.1,64.0,84,29.95,10.0,Calm,Calm,-,N/A,,Partly Cloudy,0,2013-08-02 08:54:00
4:54 AM,66.9,64.0,90,29.95,10.0,Calm,Calm,-,N/A,,Clear,0,2013-08-02 09:54:00
5:54 AM,66.9,64.0,90,29.95,10.0,West,3.5,-,N/A,,Clear,260,2013-08-02 10:54:00
6:54 AM,66.9,64.0,90,29.95,10.0,Calm,Calm,-,N/A,,Clear,0,2013-08-02 11:54:00
7:54 AM,70.0,66.0,87,29.96,10.0,Calm,Calm,-,N/A,,Overcast,0,2013-08-02 12:54:00
8:54 AM,73.0,66.9,81,29.96,10.0,SW,4.6,-,N/A,,Overcast,220,2013-08-02 13:54:00
9:54 AM,75.9,66.9,74,29.96,10.0,SW,6.9,-,N/A,,Clear,220,2013-08-02 14:54:00
10:54 AM,79.0,68.0,69,29.96,10.0,SSW,11.5,-,N/A,,Mostly Cloudy,200,2013-08-02 15:54:00
11:54 AM,81.0,66.9,62,29.96,10.0,SW,10.4,-,N/A,,Mostly Cloudy,230,2013-08-02 16:54:00
12:54 PM,80.1,68.0,67,29.96,10.0,SSW,4.6,-,0.00,,Overcast,210,2013-08-02 17:54:00
1:54 PM,80.1,68.0,67,29.94,10.0,Calm,Calm,-,0.00,,Mostly Cloudy,0,2013-08-02 18:54:00
2:54 PM,80.1,69.1,69,29.94,10.0,SW,4.6,-,N/A,,Mostly Cloudy,220,2013-08-02 19:54:00
3:54 PM,80.1,68.0,67,29.91,10.0,Calm,Calm,-,N/A,,Mostly Cloudy,0,2013-08-02 20:54:00
4:54 PM,77.0,73.0,88,29.92,7.0,NW,6.9,-,0.02,Rain,Light Rain,310,2013-08-02 21:54:00
5:10 PM,75.2,73.4,94,29.93,0.8,SE,3.5,-,0.09,Rain,Heavy Rain,140,2013-08-02 22:10:00
5:16 PM,75.2,71.6,89,29.92,4.0,SE,3.5,-,0.10,Rain,Light Rain,140,2013-08-02 22:16:00
5:54 PM,73.9,71.1,91,29.91,7.0,East,3.5,-,0.11,Rain,Light Rain,100,2013-08-02 22:54:00
6:54 PM,73.0,70.0,90,29.89,4.0,SE,3.5,-,0.05,Rain,Rain,130,2013-08-02 23:54:00
7:54 PM,73.0,70.0,90,29.91,9.0,ENE,8.1,-,0.02,,Overcast,60,2013-08-03 00:54:00
8:52 PM,71.6,69.8,94,29.94,4.0,ESE,4.6,-,0.02,Rain,Light Rain,120,2013-08-03 01:52:00
8:54 PM,72.0,70.0,93,29.93,4.0,East,4.6,-,0.02,Rain,Light Rain,100,2013-08-03 01:54:00
9:54 PM,72.0,71.1,97,29.93,5.0,Calm,Calm,-,0.00,,Overcast,0,2013-08-03 02:54:00
9:57 PM,71.6,71.6,100,29.95,5.0,ESE,3.5,-,N/A,,Overcast,120,2013-08-03 02:57:00
10:54 PM,72.0,70.0,93,29.90,4.0,Calm,Calm,-,N/A,,Mostly Cloudy,0,2013-08-03 03:54:00
11:22 PM,71.6,69.8,94,29.93,1.8,Calm,Calm,-,N/A,,Partly Cloudy,0,2013-08-03 04:22:00
11:34 PM,71.6,69.8,94,29.93,3.0,Calm,Calm,-,N/A,,Clear,0,2013-08-03 04:34:00
11:39 PM,71.6,69.8,94,29.94,1.5,Calm,Calm,-,N/A,,Partly Cloudy,0,2013-08-03 04:39:00
11:47 PM,71.6,69.8,94,29.94,0.5,Calm,Calm,-,N/A,Fog,Fog,0,2013-08-03 04:47:00
11:54 PM,71.1,70.0,96,29.92,2.5,Calm,Calm,-,N/A,,Mostly Cloudy,0,2013-08-03 04:54:00